Wind_Speed
11 11 12 12 12 12 12 12 13 13 13 13 13 12 13 13 14 14 15 15 15 14 14 13 13 13 13 12 12 12 11 11 10 10 9 9 9 8 9 9 9 9 8
12 12 12 12 13 14 14 14 14 14 14 14 14 13 13 14 14 15 15 15 15 15 15 15 15 14 14 14 14 14 13 13 12 12 11 11 10 10 10 10 10 9 9
14 13 13 13 14 14 15 15 15 15 16 16 15 15 15 15 15 15 16 16 16 16 16 16 16 15 15 15 15 15 15 14 14 13 12 12 12 12 11 11 10 10 10
15 15 15 15 15 16 16 16 16 17 17 17 17 17 17 17 16 16 16 16 16 16 16 16 16 16 15 16 16 16 16 16 15 15 14 14 13 13 13 13 12 12 12
17 17 17 17 17 17 18 18 18 18 19 19 19 19 18 18 18 18 17 17 17 17 17 17 17 16 16 16 16 16 16 16 16 15 16 15 15 14 14 14 14 13 13
18 18 18 18 18 19 19 19 19 19 20 20 20 21 20 20 20 19 19 19 18 19 19 18 18 18 18 17 17 17 17 17 17 17 17 17 16 16 16 16 16 15 15
20 20 20 19 20 20 21 21 20 20 20 21 21 21 22 21 21 21 21 20 20 20 20 20 19 19 20 20 19 19 18 18 18 18 18 18 18 18 17 18 18 17 17
21 21 21 21 21 22 22 22 22 22 22 22 22 22 23 23 23 23 23 22 22 21 21 21 21 21 21 21 21 20 20 19 19 19 19 19 19 19 19 18 18 18 18
22 23 22 22 23 24 24 24 24 24 24 24 24 24 23 23 23 24 23 23 23 24 23 22 22 22 22 22 21 21 21 21 21 21 21 21 21 21 21 20 20 19 19
24 24 24 24 24 25 25 25 25 25 26 26 26 25 25 25 24 24 24 24 24 24 24 24 24 24 24 24 23 23 22 23 23 23 23 23 23 22 22 22 22 21 21
26 26 26 26 26 27 27 26 26 27 27 27 27 27 26 26 26 26 25 25 25 25 25 25 25 25 25 26 26 26 25 25 25 25 25 25 25 24 24 23 23 23 23
28 28 28 28 28 28 28 28 28 28 28 28 29 28 27 27 27 27 27 26 26 26 26 26 26 27 27 27 27 27 28 28 29 28 28 27 27 27 26 26 25 25 25
30 29 29 29 28 28 28 28 29 29 29 29 30 29 29 28 29 29 28 28 28 28 28 28 28 28 28 29 29 29 30 30 30 30 30 30 30 29 29 29 28 28 28
31 31 31 30 29 29 28 28 29 29 30 30 30 30 30 30 30 30 30 30 30 30 30 30 30 31 31 30 31 31 31 32 32 32 32 33 33 33 32 32 31 31 31
33 33 32 32 31 30 30 30 30 30 31 31 31 32 32 32 32 32 32 32 32 32 32 32 32 32 32 32 33 34 34 34 34 34 34 34 35 35 35 35 34 34 34
35 35 34 34 33 33 33 32 32 32 33 33 33 34 34 34 34 34 34 34 34 34 34 34 34 35 34 35 35 36 36 36 37 37 37 37 37 37 37 37 38 37 37
37 36 36 36 35 35 36 36 36 36 35 34 35 35 36 36 36 36 36 36 36 37 37 37 37 37 37 37 37 38 39 39 39 40 40 39 39 39 39 39 39 39 39
39 38 38 38 37 38 38 38 38 38 38 37 37 37 37 38 38 38 38 38 39 39 39 39 38 38 39 40 40 41 41 41 41 42 42 42 42 41 41 41 41 41 41
41 40 40 39 39 39 39 39 39 40 39 40 40 40 40 40 40 40 40 41 41 41 41 41 41 40 41 41 42 42 43 43 43 43 43 43 43 44 44 43 43 44 43
41 41 41 40 40 40 40 40 41 41 41 42 42 42 42 43 42 42 43 43 43 43 43 42 42 42 42 43 43 44 44 45 45 45 45 45 45 45 45 46 46 46 46
43 42 42 41 41 42 42 42 42 43 43 44 44 43 43 44 44 44 44 44 44 44 44 44 44 44 44 45 45 46 46 46 47 47 47 47 48 48 47 48 48 48 49
44 44 44 43 43 44 44 45 45 46 45 45 45 44 44 45 46 45 46 46 46 46 46 46 46 46 46 46 46 47 47 48 48 49 49 49 50 50 50 50 51 51 51
45 45 44 45 45 45 45 46 46 47 47 46 47 47 46 47 47 47 47 47 48 48 48 48 48 48 48 48 48 48 49 49 50 50 50 51 52 52 53 53 53 53 54
45 46 46 46 47 47 46 46 47 47 47 47 48 48 49 49 49 49 49 49 49 50 50 50 50 50 50 50 50 50 51 51 51 51 51 52 53 53 54 54 55 56 56
44 45 47 48 48 48 48 48 48 49 49 49 49 50 50 50 50 50 51 51 51 51 52 52 52 51 52 52 52 52 52 52 53 53 53 54 54 55 55 55 56 56 57
45 46 47 48 49 50 50 50 50 50 50 51 50 50 51 51 51 52 53 52 52 52 53 53 53 53 53 54 54 54 54 54 54 55 56 56 56 56 56 56 56 56 57
Wind_Direction
263 261 260 258 251 247 246 244 245 247 249 249 249 251 251 249 247 244 245 244 242 242 241 240 241 240 239 239 238 237 236 235 232 228 227 226 225 222 218 213 213 216 220
264 263 261 258 252 250 248 245 246 248 249 251 252 251 250 250 250 248 246 245 243 243 243 243 243 241 242 242 241 240 238 234 231 233 232 230 230 229 228 225 225 225 227
263 263 262 260 255 251 249 247 247 249 250 251 252 251 249 248 249 249 247 245 244 244 243 244 245 246 244 243 242 241 240 238 233 234 235 235 235 235 235 235 234 233 234
264 263 262 260 255 252 250 250 251 252 252 251 251 251 250 250 249 249 249 246 245 245 244 244 245 246 244 242 242 240 240 238 237 237 237 237 237 237 238 238 239 238 239
263 262 259 259 257 253 252 252 253 253 255 253 251 251 250 249 249 248 248 248 247 245 245 245 245 245 245 243 241 239 238 237 238 239 239 239 240 240 240 239 240 242 243
261 260 259 258 256 255 253 253 253 253 254 255 253 252 251 250 249 249 248 247 247 247 247 247 247 248 248 246 244 241 239 239 240 240 241 241 241 242 243 243 243 244 244
259 259 259 258 257 256 254 253 254 254 254 255 255 254 252 252 251 249 249 249 249 249 249 249 249 250 249 247 246 243 242 242 242 242 242 242 242 243 244 246 246 246 247
262 260 258 258 258 257 256 257 257 258 255 255 254 254 253 253 252 251 252 252 252 251 251 250 250 251 250 247 245 244 243 244 245 245 245 245 245 246 246 247 248 248 248
262 261 260 259 258 258 257 257 258 259 258 257 255 254 252 251 252 251 251 253 253 252 252 252 251 251 251 248 246 245 244 245 246 246 247 248 249 249 249 250 250 250 250
261 262 262 261 260 259 259 258 259 258 257 257 254 253 252 252 252 250 251 253 254 254 254 254 253 253 252 252 250 248 247 247 247 248 248 249 250 250 250 251 251 252 252
261 262 263 262 261 261 260 258 258 257 256 255 253 252 253 253 253 251 252 253 254 255 255 255 253 253 252 252 252 251 250 249 249 250 250 250 251 251 251 251 252 254 254
261 261 261 262 261 260 259 258 257 255 255 254 253 252 253 254 254 253 253 254 254 256 256 256 255 254 254 253 253 253 253 252 251 252 253 252 252 252 252 252 253 255 257
260 260 261 261 261 260 259 258 256 255 254 253 253 252 253 254 254 254 254 254 255 256 256 257 257 256 256 255 256 255 255 255 254 253 253 254 254 253 253 254 255 256 257
260 260 260 259 259 259 258 257 257 256 255 254 253 252 252 253 253 254 255 255 256 257 257 257 257 257 257 257 256 256 255 255 255 254 254 254 254 254 254 255 256 257 258
259 259 258 257 257 256 256 256 256 255 255 255 253 253 253 254 253 254 255 255 256 257 257 257 257 257 258 258 258 257 256 256 256 256 255 255 256 256 256 257 257 257 258
258 258 257 256 256 255 256 255 255 257 256 254 253 253 254 256 255 255 256 256 257 257 257 257 258 258 259 259 259 259 258 258 257 257 257 256 256 257 257 257 257 257 258
257 256 255 254 254 255 255 256 256 256 255 255 254 254 256 256 257 257 257 256 257 258 259 259 259 260 260 261 261 261 261 260 259 259 258 257 257 257 258 258 258 258 258
256 255 254 254 254 255 255 256 256 255 255 255 255 257 257 257 257 257 257 257 259 260 261 260 260 261 261 262 263 262 261 261 260 259 258 258 258 258 258 259 259 259 259
256 256 256 256 256 256 256 257 256 255 256 257 257 259 257 258 258 258 258 258 259 260 260 260 261 261 262 263 263 262 262 261 260 260 259 259 258 258 259 259 260 259 259
255 256 257 256 256 256 255 255 255 255 255 257 259 260 259 259 258 259 259 259 260 260 260 260 261 262 263 264 263 263 263 262 262 261 260 260 260 259 259 260 260 260 260
254 255 256 256 256 256 256 256 255 256 259 260 260 259 259 259 260 261 261 260 259 259 259 260 261 262 263 264 264 264 264 263 263 262 261 261 260 260 260 260 260 260 261
253 254 255 256 256 256 256 256 256 259 260 259 260 259 259 259 260 261 261 261 260 261 261 260 261 262 263 264 264 264 264 264 263 263 262 261 261 261 261 261 261 261 261
254 255 255 255 256 256 257 257 258 259 260 260 260 259 260 260 260 260 260 261 261 262 261 261 261 263 264 264 264 264 264 264 264 263 263 262 261 261 262 262 262 262 262
254 254 254 255 255 256 256 257 258 259 260 260 259 260 260 261 261 261 261 262 262 262 261 262 262 263 264 264 264 265 265 265 264 263 263 263 262 262 263 263 263 263 262
253 254 254 254 255 256 257 258 259 260 261 261 260 261 262 262 262 262 262 262 262 262 263 263 263 264 264 264 265 265 265 266 265 264 263 264 263 263 264 264 263 263 262
255 254 254 255 255 257 258 259 260 261 261 261 261 262 262 263 263 263 264 263 263 264 264 264 264 265 265 266 266 266 266 266 266 265 264 265 264 264 264 264 263 263 263
Height
5821 5821 5821 5821 5821 5822 5823 5824 5825 5826 5827 5827 5827 5828 5829 5829 5830 5830 5831 5832 5833 5834 5835 5836 5836 5837 5837 5838 5839 5839 5840 5841 5842 5842 5843 5844 5844 5845 5846 5846 5847 5848 5849
5818 5818 5818 5818 5819 5820 5820 5821 5822 5823 5824 5824 5825 5826 5826 5827 5827 5828 5829 5830 5831 5832 5833 5833 5834 5835 5835 5836 5837 5837 5838 5839 5840 5841 5841 5842 5843 5844 5845 5845 5846 5847 5848
5815 5816 5815 5816 5816 5817 5818 5819 5820 5820 5821 5822 5822 5823 5824 5824 5825 5826 5826 5827 5828 5829 5830 5831 5832 5832 5833 5834 5835 5835 5836 5837 5838 5839 5840 5841 5842 5842 5843 5844 5845 5845 5846
5812 5813 5813 5813 5813 5814 5815 5816 5816 5818 5818 5819 5820 5820 5821 5822 5822 5823 5824 5825 5826 5827 5828 5828 5829 5830 5830 5831 5832 5833 5834 5834 5835 5837 5838 5839 5839 5840 5841 5842 5843 5844 5844
5809 5809 5810 5810 5810 5811 5812 5812 5813 5814 5815 5816 5816 5817 5818 5819 5820 5820 5821 5822 5823 5824 5825 5826 5826 5827 5828 5828 5829 5830 5831 5832 5833 5834 5835 5836 5837 5838 5839 5840 5840 5841 5842
5805 5805 5806 5806 5807 5807 5808 5809 5810 5811 5812 5812 5813 5814 5815 5815 5816 5817 5818 5819 5820 5821 5822 5823 5823 5824 5825 5825 5826 5827 5828 5829 5830 5831 5833 5834 5835 5835 5836 5837 5838 5839 5840
5801 5801 5802 5802 5803 5804 5804 5805 5806 5806 5807 5808 5809 5810 5811 5812 5813 5814 5815 5816 5816 5817 5818 5819 5820 5821 5821 5822 5823 5824 5825 5826 5827 5828 5829 5831 5832 5832 5833 5834 5835 5836 5837
5797 5797 5797 5798 5799 5799 5800 5801 5801 5802 5803 5804 5805 5806 5807 5808 5809 5810 5811 5812 5813 5814 5814 5815 5816 5817 5818 5819 5820 5821 5822 5823 5824 5825 5826 5827 5828 5829 5830 5831 5832 5833 5834
5792 5792 5792 5793 5794 5794 5795 5796 5796 5797 5798 5799 5800 5801 5802 5803 5804 5805 5806 5807 5808 5809 5810 5811 5812 5813 5813 5814 5815 5817 5818 5819 5820 5821 5822 5823 5824 5825 5826 5827 5828 5829 5830
5787 5787 5787 5788 5788 5789 5789 5790 5791 5791 5792 5793 5794 5795 5797 5798 5799 5800 5801 5802 5803 5804 5805 5806 5807 5808 5809 5810 5811 5812 5813 5815 5816 5817 5818 5819 5820 5821 5822 5823 5824 5825 5826
5781 5781 5781 5781 5782 5782 5783 5783 5784 5785 5786 5787 5788 5789 5791 5792 5794 5795 5796 5797 5798 5799 5800 5801 5802 5803 5804 5805 5806 5807 5808 5810 5811 5812 5813 5814 5815 5816 5817 5818 5819 5820 5821
5775 5775 5775 5775 5775 5775 5776 5776 5777 5778 5779 5780 5782 5783 5785 5786 5788 5789 5790 5792 5793 5794 5794 5795 5796 5797 5798 5799 5800 5801 5803 5804 5805 5806 5808 5809 5810 5811 5812 5813 5814 5815 5816
5768 5768 5768 5768 5768 5768 5769 5769 5769 5771 5772 5773 5775 5777 5779 5780 5782 5783 5785 5786 5787 5788 5789 5789 5790 5791 5792 5793 5794 5795 5796 5798 5799 5800 5801 5803 5804 5805 5806 5807 5808 5809 5810
5761 5761 5761 5761 5761 5761 5762 5762 5762 5763 5765 5766 5768 5770 5772 5774 5775 5777 5778 5779 5780 5781 5782 5783 5784 5785 5786 5787 5788 5789 5790 5791 5792 5793 5795 5796 5797 5798 5800 5801 5802 5803 5804
5753 5753 5753 5754 5754 5754 5755 5755 5756 5756 5757 5759 5761 5763 5765 5767 5768 5770 5771 5772 5773 5774 5775 5776 5777 5778 5779 5780 5781 5781 5783 5784 5785 5786 5787 5788 5790 5791 5792 5794 5795 5796 5797
5744 5744 5745 5745 5746 5747 5747 5748 5748 5749 5750 5751 5753 5756 5757 5759 5761 5762 5763 5764 5765 5767 5768 5769 5769 5770 5771 5772 5773 5774 5774 5775 5776 5778 5779 5780 5781 5783 5784 5785 5787 5788 5789
5734 5735 5736 5737 5737 5738 5739 5739 5740 5741 5742 5743 5745 5747 5749 5751 5752 5754 5755 5756 5757 5758 5759 5760 5761 5762 5763 5763 5764 5765 5766 5766 5767 5768 5770 5771 5773 5774 5775 5776 5778 5779 5781
5724 5725 5726 5728 5728 5729 5730 5731 5731 5732 5734 5735 5737 5738 5740 5742 5743 5745 5746 5747 5748 5749 5750 5751 5752 5753 5753 5754 5755 5755 5756 5757 5757 5758 5760 5761 5763 5764 5765 5767 5768 5770 5771
5714 5715 5717 5718 5719 5720 5721 5722 5723 5724 5725 5727 5728 5729 5731 5732 5733 5735 5736 5737 5738 5740 5741 5741 5742 5743 5743 5744 5744 5745 5745 5746 5747 5748 5749 5751 5752 5754 5755 5757 5758 5759 5761
5704 5705 5707 5708 5709 5710 5711 5712 5713 5714 5716 5717 5718 5719 5721 5722 5723 5724 5726 5727 5728 5729 5730 5731 5732 5732 5733 5733 5733 5733 5734 5734 5735 5736 5738 5739 5741 5742 5744 5746 5747 5748 5750
5693 5695 5696 5698 5699 5700 5701 5702 5704 5705 5706 5707 5708 5709 5710 5711 5712 5713 5714 5716 5717 5718 5719 5720 5720 5721 5722 5722 5722 5722 5722 5723 5723 5724 5726 5727 5729 5730 5732 5734 5735 5737 5738
5682 5684 5685 5687 5688 5689 5690 5692 5693 5694 5694 5695 5696 5697 5698 5699 5700 5702 5703 5704 5705 5706 5707 5708 5709 5709 5709 5709 5709 5710 5710 5711 5711 5712 5713 5715 5716 5718 5719 5721 5722 5724 5725
5671 5673 5674 5675 5676 5678 5679 5680 5681 5682 5683 5684 5685 5686 5687 5688 5688 5690 5691 5692 5693 5694 5695 5695 5696 5696 5697 5697 5697 5697 5698 5698 5699 5700 5701 5702 5703 5705 5706 5707 5709 5710 5712
5659 5661 5662 5663 5664 5665 5667 5668 5669 5670 5671 5672 5673 5673 5674 5675 5676 5677 5678 5679 5680 5681 5682 5682 5683 5683 5684 5684 5684 5684 5684 5685 5686 5687 5688 5688 5689 5690 5692 5693 5694 5696 5697
5646 5648 5650 5651 5652 5653 5655 5656 5657 5658 5659 5659 5660 5661 5661 5662 5662 5663 5664 5665 5666 5667 5668 5669 5669 5670 5670 5670 5670 5670 5670 5670 5671 5672 5674 5674 5675 5676 5677 5678 5679 5681 5682
5634 5635 5637 5638 5639 5640 5642 5643 5644 5645 5645 5646 5646 5647 5647 5648 5649 5649 5650 5651 5652 5653 5654 5655 5655 5655 5656 5656 5656 5656 5656 5656 5656 5657 5658 5659 5660 5661 5662 5663 5664 5665 5666